"Pseudo-MPEC" for C1G3G75

Created 2026 Sep 5 11:35:05 UT using Find_Orb

Click here for an explanation of pseudo-MPECs

 
 Astrometry: 
     C1G3G75*1C2026 09 05.34366222 58 48.202-10 52 50.48   ~959Z 21.28GVNEOCPV00
     C1G3G75 1C2026 09 05.34925322 58 49.343-10 53 07.08   ~959Z 21.33GVNEOCPV00
     C1G3G75 1C2026 09 05.35483622 58 50.466-10 53 23.42   ~959Z 21.37GVNEOCPV00
     C1G3G75 1C2026 09 05.39841822 58 59.347-10 55 31.44   ~959o 21.32GVNEOCPV00
     C1G3G75 1C2026 09 05.39921022 58 59.520-10 55 33.96   ~959o 21.46GVNEOCPV00
     C1G3G75 1C2026 09 05.40000422 58 59.682-10 55 36.19   ~959o 21.25GVNEOCPV00
     C1G3G75 1C2026 09 05.40079922 58 59.844-10 55 38.57   ~959o 21.47GVNEOCPV00

Station data:
(V00) Kitt Peak-Bok  (N31.963125 W111.600190)  US/Arizona. Measurers T.
   Beuden, V. F. Carvajal, D. Fay, J. B. Fazekas, D. C. Fuls, A. R. Gibbs, A.
   D. Grauer, H. Gröller, J. K. Hogan, R. A. Kowalski, S. M. Larson, G. J.
   Leonard, D. Rankin, R. L. Seaman, F. C. Shelly, K. W. Wierzchoś. 2.25-m
   reflector + 4x4K mosaic CCD.

Orbital elements:  C1G3G75
   Perihelion 2026 Jul 20.199818 +/- 40.8 TT =  4:47:44.2 (JD 2461241.699818)
Epoch 2026 Sep  5.0 TT = JDT 2461288.5   Earth MOID: 0.0327   Ju: 0.5429
M   2.937339085 +/- 17              Ma: 0.0448                   AutoNEOCP
n   0.062763411 +/- 0.156           Peri.  115.014795 +/- 60
a   6.270926186 +/- 10.4            Node   159.773444 +/- 21
e   0.86988726 +/- 0.253            Incl.   10.612651 +/- 4.9
P  15.70354                H 25.29  G  0.15   U 11.5  SR
q 0.815927376 +/- 0.199    Q 11.72592499 +/- 45.8         (J2000 ecliptic)
From 7 observations 2026 Sept. 5 (82.3 min); mean residual 0".08
Residuals in arcseconds: 
260905 V00  .02+  .04-    260905 V00  .11-  .13+    260905 V00  .03+  .06-    
260905 V00  .08+  .06-    260905 V00  .05+  .08-    
260905 V00  .11-  .12+    260905 V00  .04+  .00     

Ephemerides (geocentric):
Date (UTC) HH   RA             Dec           delta  r     elong  mag " sig PA
---- --------  ------------   ------------  ------ ------ -----  --- --------
2026 09 05 12  22 59 23.817   -10 59 47.63  .13973 1.1476 175.7 21.7  127 123
2026 09 05 13  22 59 32.964   -11 01 48.15  .14022 1.1481 175.7 21.7  147 117
2026 09 05 14  22 59 42.049   -11 03 47.80  .14071 1.1486 175.7 21.7  167 113
2026 09 05 15  22 59 51.074   -11 05 46.59  .14119 1.1490 175.6 21.7  189 109
2026 09 05 16  23 00 00.037   -11 07 44.54  .14168 1.1495 175.6 21.7  213 106
2026 09 05 17  23 00 08.941   -11 09 41.64  .14217 1.1500 175.5 21.7  237 103
2026 09 05 18  23 00 17.786   -11 11 37.92  .14265 1.1504 175.5 21.7  263 100
2026 09 05 19  23 00 26.571   -11 13 33.37  .14314 1.1509 175.4 21.7  290  98
2026 09 05 20  23 00 35.299   -11 15 28.00  .14363 1.1514 175.4 21.8  319  95
2026 09 05 21  23 00 43.969   -11 17 21.83  .14411 1.1518 175.3 21.8  349  93
2026 09 05 22  23 00 52.581   -11 19 14.85  .14460 1.1523 175.3 21.8  382  91
2026 09 05 23  23 01 01.138   -11 21 07.08  .14509 1.1528 175.2 21.8  417  89
2026 09 06 00  23 01 09.638   -11 22 58.53  .14558 1.1533 175.2 21.8  455  87
2026 09 06 01  23 01 18.082   -11 24 49.19  .14607 1.1537 175.1 21.8  495  85
2026 09 06 02  23 01 26.472   -11 26 39.09  .14656 1.1542 175.1 21.8  538  83
2026 09 06 03  23 01 34.807   -11 28 28.22  .14705 1.1547 175.1 21.8  584  81
2026 09 06 04  23 01 43.088   -11 30 16.60  .14753 1.1551 175.0 21.8  633  80
2026 09 06 05  23 01 51.316   -11 32 04.22  .14802 1.1556 175.0 21.8  686  78
2026 09 06 06  23 01 59.490   -11 33 51.11  .14851 1.1561 174.9 21.9  743  77
2026 09 06 07  23 02 07.613   -11 35 37.25  .14900 1.1565 174.9 21.9  804  75
2026 09 06 08  23 02 15.683   -11 37 22.67  .14949 1.1570 174.8 21.9  869  74
2026 09 06 09  23 02 23.701   -11 39 07.37  .14998 1.1575 174.8 21.9  938  73
2026 09 06 10  23 02 31.669   -11 40 51.35  .15047 1.1579 174.7 21.9 1012  72
2026 09 06 11  23 02 39.586   -11 42 34.62  .15096 1.1584 174.7 21.9 1091  71
2026 09 06 12  23 02 47.452   -11 44 17.19  .15146 1.1589 174.7 21.9 1176  70
2026 09 06 13  23 02 55.269   -11 45 59.07  .15195 1.1594 174.6 21.9 1266  69
2026 09 06 14  23 03 03.037   -11 47 40.25  .15244 1.1598 174.6 21.9 1362  69
2026 09 06 15  23 03 10.756   -11 49 20.75  .15293 1.1603 174.5 21.9 1465  68
2026 09 06 16  23 03 18.427   -11 51 00.57  .15342 1.1608 174.5 22.0 1575  67
2026 09 06 17  23 03 26.049   -11 52 39.72  .15391 1.1612 174.5 22.0 1693  67
2026 09 06 18  23 03 33.625   -11 54 18.21  .15441 1.1617 174.4 22.0 1819  66
2026 09 06 19  23 03 41.153   -11 55 56.03  .15490 1.1622 174.4 22.0 1955  66
2026 09 06 20  23 03 48.634   -11 57 33.20  .15539 1.1626 174.3 22.0 2100  65
2026 09 06 21  23 03 56.069   -11 59 09.73  .15588 1.1631 174.3 22.0 2256  65
2026 09 06 22  23 04 03.459   -12 00 45.61  .15638 1.1636 174.2 22.0 2424  65
2026 09 06 23  23 04 10.803   -12 02 20.85  .15687 1.1641 174.2 22.0 2605  64
2026 09 07 00  23 04 18.102   -12 03 55.47  .15736 1.1645 174.2 22.0 2801  64
2026 09 07 01  23 04 25.356   -12 05 29.45  .15786 1.1650 174.1 22.0 3013  64
2026 09 07 02  23 04 32.566   -12 07 02.82  .15835 1.1655 174.1 22.0 3243  64
2026 09 07 03  23 04 39.732   -12 08 35.58  .15884 1.1659 174.0 22.1 3494  63
2026 09 07 04  23 04 46.855   -12 10 07.72  .15934 1.1664 174.0 22.1 3768  63
2026 09 07 05  23 04 53.934   -12 11 39.26  .15983 1.1669 174.0 22.1 4068  63
2026 09 07 06  23 05 00.971   -12 13 10.20  .16033 1.1674 173.9 22.1 4398  63
2026 09 07 07  23 05 07.966   -12 14 40.55  .16082 1.1678 173.9 22.1 4763  63
2026 09 07 08  23 05 14.918   -12 16 10.31  .16132 1.1683 173.8 22.1 5167  63
2026 09 07 09  23 05 21.829   -12 17 39.49  .16181 1.1688 173.8 22.1 5618  63
2026 09 07 10  23 05 28.699   -12 19 08.08  .16231 1.1693 173.8 22.1 6124  63
2026 09 07 11  23 05 35.527   -12 20 36.11  .16280 1.1697 173.7 22.1 6694  63